750  
NZUS93 KARX 162010  
HRRWXR  
 
CURRENT HOURLY OBSERVATIONS ACROSS  
MUCH OF THE UPPER MISSISSIPPI VALLEY  
NATIONAL WEATHER SERVICE LA CROSSE WI  
300 PM CDT THU AUG 16 2018  
 
   
..SOUTHEAST MINNESOTA
 
 
 
CITY SKY/WX TMP DP RH WIND PRES REMARKS  
ROCHESTER PTSUNNY 73 66 78 W8 29.97S  
ROCHESTER/MAYO MOCLDY 74 65 74 N5 29.98R  
WINONA PTSUNNY 77 68 73 SW7 29.94R THUNDER  
AUSTIN FAIR 72 66 83 W5 29.98F  
ALBERT LEA LGT RAIN 68 66 94 N6 30.00F  
DODGE CENTER FAIR 70 64 83 NW14 29.98S  
PRESTON PTSUNNY 69 66 90 W8 29.99R  
OWATONNA TSTM 66 64 94 NW7 29.99F  
FARIBAULT RAIN 66 64 94 CALM 29.99F  

 
   
..ELSEWHERE IN MINNESOTA
 
 
 
CITY SKY/WX TMP DP RH WIND PRES REMARKS  
MINNEAPOLIS PTSUNNY 78 65 63 SW14G24 29.98R  
INTNL FALLS FAIR 83 57 41 CALM 30.00F  
DULUTH FAIR 79 59 50 E6 30.01F  
RED WING FAIR 75 66 73 N3 29.93F  
REDWOOD FALLS CLOUDY 75 65 70 CALM 29.99F  
MANKATO RAIN 66 66 100 NE3 30.01F  
WORTHINGTON CLOUDY 67 65 93 N7 30.02R  
FAIRMONT LGT RAIN 68 65 90 NE7 30.01S  

 
   
..SOUTHWEST WISCONSIN
 
 
 
CITY SKY/WX TMP DP RH WIND PRES REMARKS  
LA CROSSE CLOUDY 84 68 58 N12 29.91F  
PRAIRIE DU CHI PTSUNNY 79 69 70 NW3 29.92S  
BOSCOBEL LGT RAIN 77 72 84 CALM 29.91F  
LONE ROCK PTSUNNY 79 73 82 E10 29.92F THUNDER  
PLATTEVILLE PTSUNNY 77 75 93 E5 29.94F  
FORT MC COY FAIR 84 67 55 E8 29.93F  
CAMP DOUGLAS PTSUNNY 86 70 58 SE5 29.92F HX 90  
MAUSTON-NEW LI MOCLDY 83 71 67 E3 29.93S  
VIROQUA CLOUDY 75 73 94 NW5 29.95F VSB 1/4  
WIS DELLS HVY RAIN 80 69 70 CALM 29.94F  

 
   
..ELSEWHERE IN WISCONSIN
 
 
 
CITY SKY/WX TMP DP RH WIND PRES REMARKS  
MILWAUKEE FAIR 80 69 69 SE9 29.94F  
MADISON PTSUNNY 82 69 64 CALM 29.92F  
GREEN BAY FAIR 81 69 67 NE8 29.96F  
EAU CLAIRE FAIR 81 69 67 SE3 29.93F  
BLACK RVR FLS RAIN 82 67 60 CALM 29.92F  
MEDFORD FAIR 81 64 55 E3 29.98F  
WAUSAU PTSUNNY 82 66 58 E6 29.96F  
WIS RAPIDS FAIR 87 66 49 E9 29.95F  
MARSHFIELD FAIR 85 65 51 E9 29.96F  
RICE LAKE FAIR 83 66 57 CALM 29.97F  

 
   
..NORTHEAST IOWA
 
 
 
CITY SKY/WX TMP DP RH WIND PRES REMARKS  
WATERLOO HVY RAIN 69 69 100 W17G23 29.95R FOG  
DUBUQUE PTSUNNY 80 71 74 CALM 29.93F  
DECORAH CLOUDY 77 72 83 VRB6 29.94F  
MASON CITY CLOUDY 68 67 96 NW10 30.00S  
CHARLES CITY LGT RAIN 72 70 94 NW13G22 29.98R  
OELWEIN PTSUNNY 79 72 78 CALM 29.95S  

 
   
..ELSEWHERE IN IOWA
 
 
 
CITY SKY/WX TMP DP RH WIND PRES REMARKS  
DES MOINES MOSUNNY 80 67 64 W6 29.94F  
IOWA CITY FAIR 83 72 69 S7 29.93F  
FORT DODGE PTSUNNY 74 66 76 VRB3 29.98F  
MARSHALLTOWN LGT RAIN 71 70 96 N7 29.95F  
CEDAR RAPIDS FAIR 82 71 69 W7 29.92F  

 
   
..NORTHERN ILLINOIS
 
 
 
CITY SKY/WX TMP DP RH WIND PRES REMARKS  
CHICAGO-OHARE CLOUDY 83 67 58 CALM 29.92F  
CHICAGO-MIDWAY PTSUNNY 84 69 60 N8 29.92F  
MOLINE LGT RAIN 81 73 76 N8 29.90F  
ROCKFORD PTSUNNY 81 69 67 S5 29.94F  
PEORIA FAIR 83 72 69 SW12 29.93F  

 
 
NOTE: "FAIR" INDICATES FEW OR NO CLOUDS BELOW 12,000 FEET WITH NO  
SIGNIFICANT WEATHER AND/OR OBSTRUCTIONS TO VISIBILITY. WIND  
SPEEDS ARE IN MILES-PER-HOUR.  
 
 
CLICK HERE TO GO TO PREVIOUS BULLETINS.

The Nexlab WI Page
The Nexlab IA Page
The Nexlab MN Page Main Text Page